Location: Maignaut
(43.8886°N, 0.4051°E)
Time: 19:39:18
(UTC+00:00)

CZ-4 R/B - Pass Details

Date: 17 January 2021
Orbit: 530 x 599 km, 97.7° (Epoch: 28 February)

Event Time Altitude Azimuth Distance (km) Brightness Sun altitude
Rises 17:49:27 0° 141° (SE) 2,814 4.7 -10.8°
Reaches altitude 10° 17:51:47 10° 131° (SE) 1,910 3.8 -11.2°
Maximum altitude 17:55:26 31° 70° (ENE) 1,034 2.1 -11.8°
Drops below altitude 10° 17:59:03 10° 8° (N) 1,889 3.8 -12.4°
Sets 18:01:21 0° 358° (N) 2,780 4.8 -12.8°
